EHI
0 5 9 6 1 0 0 0 0 0 0 0 0 0 0 0 0 0 0 0 0 0 0 0 0 0 0 0 0 0 0 0 0 0 0 0 0 0 0 0 0 0 0
1 5 9 6 2 1 0 0 0 0 0 0 0 0 0 0 0 0 0 0 0 0 0 0 0 0 0 0 0 0 0 0 0 0 0 0 0 0 0 0 0 0 0
1 4 6 5 2 1 0 0 0 0 0 0 0 0 0 0 0 0 0 0 0 0 0 0 0 0 0 0 0 0 0 0 0 0 0 0 0 0 0 0 0 0 0
1 2 3 4 2 0 0 0 0 0 0 0 0 0 0 0 0 0 0 0 0 0 0 0 0 0 0 0 0 0 0 0 0 0 0 0 0 0 0 0 0 0 0
1 2 3 4 2 0 0 0 0 0 0 0 0 0 0 0 0 0 0 0 0 0 0 0 0 0 0 0 0 0 0 0 0 0 0 0 0 0 0 0 0 0 0
2 2 4 4 2 0 0 0 0 0 0 0 0 0 0 0 0 0 0 0 0 0 0 0 0 0 0 0 0 0 0 0 0 0 0 0 0 0 0 0 0 0 0
2 2 3 4 2 0 0 0 0 0 0 0 0 0 0 0 0 0 0 0 0 0 0 0 0 0 0 0 0 0 0 0 0 0 0 0 0 0 0 0 0 0 0
3 2 2 3 1 0 0 0 0 0 0 0 0 0 0 0 0 0 0 0 0 0 0 0 0 0 0 0 0 0 0 0 0 0 0 0 0 0 0 0 0 0 0
4 3 2 1 0 0 0 0 0 0 0 0 0 0 0 0 0 0 0 0 0 0 0 0 0 0 0 0 0 0 0 0 0 0 0 0 0 0 0 0 0 0 0
3 2 1 0 0 0 0 0 0 0 0 0 0 0 0 0 0 0 0 0 0 0 0 0 0 0 0 0 0 0 0 0 0 0 0 0 0 0 0 0 0 0 0
1 1 0 0 0 0 0 0 0 0 0 0 0 0 0 0 0 0 0 0 0 0 0 0 0 0 0 0 0 0 0 0 0 0 0 0 0 0 0 0 0 0 0
3 1 0 0 0 0 0 0 0 0 0 0 0 0 0 0 0 0 0 0 0 0 0 0 0 0 0 0 0 0 0 0 0 0 0 0 0 0 0 0 0 0 0
7 4 1 0 0 0 0 0 0 0 0 0 0 0 0 0 0 0 0 0 0 0 0 0 0 0 0 0 0 0 0 0 0 0 0 0 0 0 0 0 0 0 0
10 6 2 1 0 0 0 0 0 0 0 0 0 0 0 0 0 0 0 0 0 0 0 0 0 0 0 0 0 0 0 0 0 0 0 0 0 0 0 0 0 0 0
16 10 5 3 1 0 0 0 0 0 0 0 0 0 0 0 0 0 0 0 0 0 0 0 0 0 0 0 0 0 0 0 0 0 0 0 0 0 0 0 0 0 0
22 14 9 7 3 1 0 0 0 0 0 0 0 0 0 0 0 0 0 0 0 0 0 0 0 0 0 0 0 0 0 0 0 0 0 0 0 0 0 0 0 0 0
22 19 16 13 7 2 0 0 0 0 0 0 0 0 0 0 0 0 0 0 0 0 0 0 0 0 0 0 0 0 0 0 0 0 0 0 0 0 0 0 0 0 0
16 17 19 18 11 5 2 1 0 0 0 0 0 0 0 0 0 0 0 0 0 0 0 0 0 0 0 0 0 0 0 0 0 0 0 0 0 0 0 0 0 0 0
8 10 15 16 12 9 6 3 1 0 0 0 0 0 0 0 0 0 0 0 0 0 0 0 0 0 0 0 0 0 0 0 0 0 0 0 0 0 0 0 0 0 0
4 5 9 10 11 12 11 6 2 0 0 0 0 0 0 0 0 0 0 0 0 0 0 0 0 0 0 0 0 0 0 0 0 0 0 0 0 0 0 0 0 0 0
2 3 5 7 8 10 10 6 2 0 0 0 0 0 0 0 0 0 0 0 0 0 0 0 0 0 0 0 0 0 0 0 0 0 0 0 0 0 0 0 0 0 0
1 1 2 3 5 6 6 5 3 1 0 0 0 0 0 0 0 0 0 0 0 0 0 0 0 0 0 0 0 0 0 0 0 0 0 0 0 0 0 0 0 0 0
0 0 0 2 3 5 7 7 6 3 2 1 1 1 0 0 0 0 0 0 0 0 0 0 0 0 0 0 0 0 0 0 0 0 0 0 0 0 0 0 0 0 0
0 0 0 1 3 6 9 10 9 6 4 2 2 1 0 0 0 0 0 0 0 0 0 0 0 0 0 0 0 0 0 0 0 0 0 0 0 0 0 0 0 0 0
0 0 0 1 2 4 7 9 9 6 4 2 1 1 0 0 0 0 0 0 0 0 0 0 0 0 0 0 0 0 0 0 0 0 0 0 0 0 0 0 0 0 0
0 0 0 0 1 1 4 8 9 6 3 1 0 0 0 0 0 0 0 0 0 0 0 0 0 0 0 0 0 0 0 0 0 0 0 0 0 0 0 0 0 0 0
Wind_Speed
10 11 18 18 17 17 16 15 15 14 15 15 15 16 16 17 18 19 19 19 18 18 18 18 17 17 17 17 17 16 16 16 16 16 15 15 15 15 15 14 12 8 14
12 14 18 18 18 17 16 15 15 14 15 15 15 16 16 17 18 19 19 19 18 18 17 17 17 16 16 16 15 14 13 12 13 14 12 11 12 14 15 14 13 9 14
16 14 16 17 17 17 16 16 15 15 16 16 16 16 17 18 18 19 19 18 17 17 17 16 15 15 14 14 13 12 12 11 11 11 10 6 8 14 14 13 13 14 13
16 13 14 17 18 17 17 16 16 16 16 16 16 16 17 18 18 18 18 17 17 16 15 15 14 13 12 12 12 12 12 12 12 10 6 5 5 11 13 13 13 13 12
13 11 14 18 18 17 17 16 16 16 17 16 16 16 17 17 18 17 17 16 16 15 14 13 13 12 11 11 11 12 13 13 12 9 5 5 4 10 12 12 12 12 12
11 10 13 17 17 17 16 16 16 17 17 17 16 16 16 17 17 16 16 15 14 14 13 12 11 10 10 10 11 12 12 12 9 5 4 4 3 9 11 11 10 10 10
11 10 13 17 17 17 16 15 15 16 17 17 16 16 16 16 16 15 14 14 13 13 12 11 10 9 8 8 9 11 10 9 5 4 3 3 4 9 10 10 10 10 10
12 10 12 17 16 15 15 15 15 16 17 17 16 16 16 15 15 14 13 12 12 12 11 10 9 8 7 6 7 8 8 6 5 3 3 2 5 8 8 8 8 9 9
12 9 8 10 11 13 13 13 13 14 15 16 16 15 14 14 13 13 12 11 11 10 9 8 7 6 4 4 4 5 6 5 3 1 2 1 4 6 6 6 6 7 7
11 10 8 8 8 8 8 11 12 12 13 14 14 13 12 11 11 11 9 9 9 9 8 7 6 4 2 1 2 4 4 4 2 1 2 3 5 4 4 4 4 4 5
12 10 9 8 7 7 7 9 9 11 11 12 11 12 10 6 6 6 7 8 8 7 6 6 4 3 1 2 3 4 3 1 0 1 2 5 6 5 4 3 2 2 2
13 11 10 10 9 7 7 6 5 5 6 6 6 7 5 4 4 5 7 8 7 6 5 5 5 3 2 2 4 4 1 2 1 2 3 8 7 6 5 4 3 2 2
13 11 10 10 10 8 6 5 3 3 4 5 6 6 4 4 3 3 3 3 4 4 3 3 3 2 2 2 3 3 3 2 2 2 4 9 9 8 6 6 6 5 4
13 11 11 11 10 8 7 6 5 4 4 4 5 6 4 3 3 3 3 3 3 2 3 3 2 3 4 4 4 4 4 3 3 2 4 9 10 10 9 8 8 8 7
14 13 12 12 11 9 8 6 6 5 5 5 5 6 6 5 5 4 3 3 3 3 3 3 3 4 4 4 4 5 5 4 4 4 3 9 11 11 11 10 10 10 9
14 14 13 13 12 10 8 6 6 6 5 5 5 6 7 5 5 5 4 4 4 4 4 4 4 4 3 3 4 4 4 4 4 4 4 5 10 12 12 12 11 11 10
13 13 14 14 13 11 10 8 6 6 5 5 5 6 7 6 6 5 4 4 4 4 4 3 3 2 2 2 3 4 3 4 4 4 4 4 4 9 12 13 12 11 10
11 12 13 12 12 11 9 7 5 5 5 5 5 5 6 6 6 5 4 3 3 3 3 2 2 2 2 2 2 3 3 3 5 5 4 4 4 4 7 11 11 10 9
10 11 11 10 11 10 8 7 6 5 5 5 4 4 5 6 6 4 4 3 3 2 2 2 2 2 2 3 3 3 3 4 5 5 5 5 5 4 4 5 7 6 5
8 9 10 9 9 8 6 5 4 4 4 4 4 5 6 5 6 5 3 3 3 2 2 2 2 2 2 2 3 4 4 5 4 5 6 4 3 4 3 3 2 2 2
7 8 9 9 8 7 5 5 5 5 4 3 4 5 5 5 5 4 3 3 2 2 3 3 2 2 2 1 1 3 4 4 4 4 3 3 2 2 2 2 2 2 1
8 9 8 9 9 8 6 5 3 3 3 3 3 4 5 5 5 4 4 3 2 2 2 2 2 1 2 1 1 1 3 4 3 3 2 1 1 1 1 2 3 2 2
9 10 9 10 9 8 7 4 3 3 2 2 3 3 3 4 5 4 4 3 2 2 2 2 2 2 2 1 2 2 2 3 3 3 3 2 2 2 1 2 2 2 3
9 8 8 9 9 8 8 7 7 6 5 5 4 3 3 3 4 4 4 3 2 1 1 1 1 1 2 2 1 2 3 3 3 3 2 2 3 3 2 2 2 3 3
7 6 6 7 7 7 8 9 8 6 4 3 3 5 4 3 3 4 3 3 3 2 1 1 1 1 2 2 2 2 2 2 4 4 4 2 1 2 2 2 3 3 3
4 4 5 6 5 5 6 7 8 8 7 6 6 5 4 3 2 3 4 3 3 2 2 1 1 1 1 2 2 2 2 2 2 3 4 3 2 0 2 3 3 3 3
Wind_Direction
152 154 148 144 138 133 128 124 121 117 111 105 102 101 101 104 105 105 104 102 100 98 96 95 94 94 93 92 90 86 82 78 73 70 67 66 70 72 71 68 63 58 64
145 150 147 144 140 134 130 127 124 120 114 109 106 106 106 107 106 105 104 103 101 100 98 97 96 96 95 93 90 87 84 83 77 71 62 57 65 70 68 64 64 64 64
143 147 146 143 139 135 132 131 128 123 117 114 111 110 110 109 107 106 104 103 102 101 99 98 97 97 95 91 86 81 80 85 88 76 63 46 56 66 66 63 61 62 62
143 144 144 141 139 136 135 135 132 126 121 118 115 114 112 110 108 107 106 105 103 102 101 100 99 98 94 87 79 74 79 91 93 82 63 47 50 65 62 61 60 59 58
139 141 144 141 139 139 139 138 134 129 125 121 119 117 115 113 111 109 108 107 106 105 103 102 100 96 91 83 74 72 81 95 96 85 71 55 48 68 65 62 59 58 56
134 137 143 140 140 140 141 141 137 132 128 126 124 121 119 117 115 113 111 111 110 108 106 104 101 96 89 79 71 71 84 99 97 87 76 63 56 71 69 66 62 59 57
136 139 143 141 142 142 143 143 140 136 133 130 129 125 124 122 120 119 117 116 114 112 111 109 104 99 89 78 70 69 76 91 95 97 88 72 74 76 71 66 63 61 59
140 142 144 142 142 142 144 144 143 141 137 135 133 130 129 128 127 126 124 121 119 117 116 114 110 102 91 77 67 62 64 82 98 107 105 93 91 84 77 69 65 62 59
142 140 139 141 140 141 143 144 144 143 140 139 137 135 133 133 134 134 132 129 127 124 122 122 119 113 99 75 55 46 47 69 106 148 151 144 116 99 89 79 69 64 61
144 142 138 137 135 134 136 139 139 141 141 141 140 137 138 140 140 139 138 138 137 136 136 137 138 137 125 41 8 11 21 50 76 169 184 181 154 130 116 100 83 72 66
150 148 144 140 137 134 136 139 138 140 142 141 142 143 140 139 140 141 147 148 150 154 157 161 168 177 207 301 312 327 358 14 342 241 218 206 184 172 162 149 129 103 85
159 158 153 149 147 145 145 137 138 142 144 144 149 149 145 149 157 159 166 167 169 173 182 193 205 222 246 292 302 309 306 292 264 237 228 220 208 204 200 196 194 190 174
160 163 161 157 156 155 145 150 150 146 151 155 160 162 158 159 166 165 166 177 183 189 202 226 238 247 248 257 268 270 265 264 244 242 234 223 219 220 221 220 220 222 221
161 170 166 164 162 161 157 161 161 161 166 172 178 173 166 167 174 176 184 190 193 197 211 228 238 248 254 253 252 255 259 251 244 241 241 231 228 230 233 233 233 231 231
165 171 171 169 166 166 163 168 169 172 178 182 181 181 177 174 180 185 193 196 204 205 211 222 233 246 254 255 248 240 247 248 249 244 248 242 237 237 239 240 240 240 239
166 170 172 172 170 168 169 171 173 178 178 182 186 187 182 178 180 183 192 198 208 210 214 216 223 231 242 243 249 245 248 254 254 253 246 249 247 245 246 247 248 248 248
169 170 173 174 172 173 173 174 174 176 173 178 184 184 181 179 177 176 182 192 205 205 205 209 223 226 241 246 257 262 262 264 264 261 255 243 246 246 246 250 251 252 254
168 171 175 176 173 175 172 171 171 172 172 177 179 179 180 179 176 173 178 193 199 193 191 199 210 223 246 256 266 274 273 273 268 262 256 248 241 242 244 247 250 252 256
171 172 174 172 174 174 172 169 171 171 174 178 177 179 184 182 177 172 182 194 190 184 196 206 206 208 239 262 268 272 271 268 267 267 262 254 244 238 236 242 239 241 249
176 174 175 173 174 170 164 160 163 169 173 173 177 182 180 183 179 175 181 191 183 182 204 210 220 224 230 249 271 276 271 267 267 266 266 263 252 241 223 206 200 208 219
180 178 178 177 177 170 167 172 175 181 177 174 180 182 178 175 173 171 176 183 180 190 211 216 216 236 249 238 276 297 292 276 274 274 273 266 260 240 185 168 158 151 136
186 185 183 182 181 182 183 177 171 165 171 176 176 177 177 172 172 173 173 178 181 189 206 213 205 221 249 200 201 287 313 323 317 313 323 314 307 72 107 124 129 131 122
195 190 190 189 185 185 176 153 132 117 118 154 174 175 177 164 161 156 159 163 168 177 194 206 199 201 237 252 201 208 238 266 305 315 352 15 31 49 56 77 96 105 106
203 194 191 190 185 183 174 171 170 177 188 195 179 165 150 139 137 138 137 139 136 138 165 195 174 187 202 239 253 230 224 217 247 297 322 7 28 29 22 43 64 70 78
196 188 186 184 186 183 181 183 182 185 189 166 145 148 147 131 125 125 126 124 123 124 137 147 172 196 209 222 226 238 252 243 227 235 269 290 357 17 21 29 57 61 56
180 178 177 174 182 181 182 183 186 182 172 161 160 161 154 137 120 125 125 124 124 132 143 167 200 223 233 239 233 222 225 235 230 225 245 245 239 53 41 34 47 56 54